Home > Weather > Götzis > Past weeks

Flag for Austria Past Weather in Götzis, Vorarlberg, Austria — Yesterday and Last 2 Weeks

Now
63 °F

Mild.


Feels Like: 63 °F
Forecast: 63 / 71 °F
Wind: 1 mph from Northwest

Location: Feldkirch

Current Time: Jun 25, 2016 at 7:19:38 AM

Latest Report: Jun 25, 2016 at 6:00 AM


Visibility: N/A

Pressure: 29.96 "Hg

Humidity: 89%

Dew Point: 60 °F

Location of GötzisLocation

Past Weather in Götzis — Graph

°F

Götzis Temperature Yesterday

Maximum temperature yesterday: 87 °F (at 1:00 PM)
Minimum temperature yesterday: 66 °F (at 6:00 AM)
Average temperature yesterday: 77 °F

High & Low Weather Summary for the Past Weeks

 TemperatureHumidityPressure
High88 °F (Jun 23, 6:00 PM)98% (Jun 14, 6:00 AM)30.27 "Hg (Jun 14, 6:00 AM)
Low46 °F (Jun 17, 6:00 AM)41% (Jun 10, 7:00 PM)29.55 "Hg (Jun 14, 2:00 PM)
Average63 °F78%29.93 "Hg
* Reported Jun 10 6:00 AM — Jun 25 6:00 AM, Götzis, Weather by CustomWeather, © 2016

Note: Actual official high and low records may vary slightly from our data, if they occured in-between our weather recording intervals... More about our weather records

Advertising

Götzis Weather History for the Previous 24 Hours

Scroll right to see more
 ConditionsComfort  
Time TempWeatherWind HumidityBarometerVisibility
6:00 AM
Sat, Jun 25
63 °FMild.1 mph89%29.96 "HgN/A
5:00 AM64 °FMild.1 mph87%29.93 "HgN/A
4:00 AM65 °FMild.1 mph85%29.92 "HgN/A
3:00 AM66 °FMild.1 mph85%29.94 "HgN/A
2:00 AM67 °FMild.1 mph83%29.97 "HgN/A
1:00 AM68 °FMild.No wind83%29.99 "HgN/A
12:00 AM69 °FMild.1 mph78%29.98 "HgN/A
11:00 PM
Fri, Jun 24
72 °FMild.3 mph67%29.94 "HgN/A
10:00 PM72 °FMild.5 mph67%29.95 "HgN/A
9:00 PM73 °FMild.1 mph70%29.97 "HgN/A
8:00 PM78 °FWarm.8 mph51%29.93 "HgN/A
7:00 PM85 °FWarm.2 mph47%29.88 "HgN/A
6:00 PM87 °FWarm.1 mph45%29.87 "HgN/A
3:00 PM87 °FWarm.5 mph41%29.93 "HgN/A
2:00 PM87 °FWarm.3 mph43%29.95 "HgN/A
1:00 PM87 °FWarm.2 mph50%29.96 "HgN/A
12:00 PM85 °FWarm.1 mph53%29.99 "HgN/A
11:00 AM83 °FPassing clouds.1 mph51%30.01 "Hg16 mi
10:00 AM80 °FWarm.2 mph51%30.04 "HgN/A
9:00 AM78 °FWarm.1 mph54%30.05 "HgN/A
8:00 AM72 °FMild.No wind68%30.07 "HgN/A
7:00 AM67 °FScattered clouds.2 mph81%30.08 "Hg12 mi
Weather by CustomWeather, © 2016

See weather overviewHow to use our weather pages